Hourly Data Report for September 17, 2017

All times are specified in Local Standard Time (LST). Add 1 hour to adjust for Daylight Saving Time where and when it is observed.

ALERT CLIMATE
NUNAVUT

82°30'00.000" N
62°20'00.000" W
65.40 m
2400305
71355
ZLT

Download Data

Hourly Data (September 2017)
Hourly Data Report for September 17, 2017
Temp Definition
°C
Dew Point Temp Definition
°C
Rel Hum Definition
%
Wind Dir Definition
10's deg

Wind Spd Definition
km/h
Visibility Definition
km
Stn Press Definition
kPa
Hmdx Definition


Wind Chill Definition


Weather Definition


TIME
00:00 -7.6 -9.0 90 12 5   99.62   -10 LegendNANA
01:00 -7.8 -9.0 91 13 10   99.63   -13 LegendNANA
02:00 -7.9 -9.0 92 13 9   99.66   -12 LegendNANA
03:00 -7.8 -8.8 93 14 7   99.66   -11 LegendNANA
04:00 -7.9 -8.8 93 14 6   99.70   -11 LegendNANA
05:00 -7.9 -9.0 92 14 9   99.73   -12 LegendNANA
06:00 -8.0 -9.2 91 12 6   99.73   -11 LegendNANA
07:00 -8.3 -9.0 95 6 7   99.77   -12 LegendNANA
08:00 -8.7 -9.5 94 6 3   99.77   -10 LegendNANA
09:00 -8.8 -9.6 94 6 4   99.77   -11 LegendNANA
10:00 -8.9 -10.3 90 5 5   99.73   -12 LegendNANA
11:00 -9.2 -10.9 87 36 8   99.72   -14 LegendNANA
12:00 -9.1 -10.9 86 36 4   99.72   -11 LegendNANA
13:00 -9.2 -10.6 90 29 4   99.73   -11 LegendNANA
14:00 -9.2 -10.7 89 33 4   99.73   -11 LegendNANA
15:00 -9.4 -10.8 89 31 3   99.71   -11 LegendNANA
16:00 -9.5 -10.7 91 32 4   99.76   -12 LegendNANA
17:00 -9.8 -11.2 90 1 5   99.75   -13 LegendNANA
18:00 -10.0 -11.0 92 10 3   99.78   -12 LegendNANA
19:00 -10.1 -11.0 93 10 4   99.78   -12 LegendNANA
20:00 -9.5 -10.8 90 10 6   99.77   -13 LegendNANA
21:00 -8.9 -10.7 86 6 9   99.77   -14 LegendNANA
22:00 -8.0 -11.0 79 19 4   99.76   -10 LegendNANA
23:00 -9.8 -12.2 83 27 5   99.77   -13 LegendNANA

Notes on Data Quality.

Legend

  • E = Estimated
  • M = Missing
  • NA = Not Available
  • ‡ = Partner data that is not subject to review by the National Climate Archives
Date modified: